Flag for Uzbekistan Weather past 2 weeks in Tashkent, Uzbekistan

Now
37 °F

Clear.


Feels Like: 37 °F
Forecast: 30 / 42 °F
Wind: No wind

Location: Tashkent

Current Time: Dec 18, 2014 at 9:06:55 PM

Latest Report: Dec 18, 2014 at 8:00 PM


Visibility: 2 mi

Pressure: 30.24 "Hg

Humidity: 65%

Dew point: 27 °F

Location of TashkentLocation

Historic Weather in Tashkent — Graph

°F

Tashkent temperature yesterday

Maximum temperature yesterday: 48 °F (at 1:00 PM)
Minimum temperature yesterday: 30 °F (at 3:00 AM)
Average temperature yesterday: 38 °F

Past Weeks' High & Low Weather Summary

 TemperatureHumidityPressure
High52 °F (Dec 15, 12:30 PM)100% (Dec 4, 4:00 AM)30.95 "Hg (Dec 4, 4:00 AM)
Low10 °F (Dec 8, 8:00 AM)25% (Dec 8, 2:30 PM)30.07 "Hg (Dec 6, 10:00 AM)
Average31 °F67%30.45 "Hg
* Reported Dec 3 7:00 PM — Dec 18 7:30 PM, Tashkent, Weather by CustomWeather, © 2014

Note: Actual official high and low records may vary slightly from our data, if they occured in-between our weather recording intervals... More about our weather records

Advertising

Tashkent weather history for previous 24 hours

 ConditionsComfort  
Time TempWeatherWind HumidityBarometerVisibility
7:30 PM
Dec 18
37 °FClear.3 mph65%30.24 "Hg2 mi
7:00 PM37 °FClear.3 mph65%30.24 "Hg2 mi
6:30 PM37 °FClear.3 mph60%30.24 "Hg2 mi
6:00 PM39 °FClear.No wind56%30.24 "Hg2 mi
5:30 PM39 °FClear.5 mph56%30.24 "Hg2 mi
5:00 PM39 °FClear.3 mph56%30.24 "Hg2 mi
4:30 PM41 °FClear.5 mph49%30.24 "Hg2 mi
4:00 PM41 °FClear.6 mph45%30.24 "Hg2 mi
3:00 PM43 °FClear.9 mph42%30.21 "Hg2 mi
2:30 PM43 °FClear.8 mph46%30.21 "Hg2 mi
2:00 PM43 °FClear.7 mph42%30.21 "Hg2 mi
1:30 PM43 °FClear.6 mph46%30.21 "Hg2 mi
1:00 PM43 °FClear.7 mph46%30.21 "Hg2 mi
12:30 PM45 °FClear.3 mph42%30.24 "Hg2 mi
12:00 PM43 °FClear.2 mph53%30.24 "Hg2 mi
11:30 AM43 °FClear.No wind57%30.27 "Hg2 mi
11:00 AM41 °FClear.2 mph66%30.27 "Hg2 mi
10:30 AM39 °FFog.3 mph70%30.27 "Hg2 mi
10:00 AM37 °FFog.No wind87%30.27 "Hg1 mi
9:30 AM34 °FFog.No wind93%30.27 "Hg1 mi
9:00 AM32 °FIce fog.No wind93%30.27 "Hg1 mi
8:30 AM32 °FIce fog.3 mph93%30.27 "Hg1 mi
8:00 AM32 °FIce fog.3 mph87%30.27 "Hg1 mi
7:30 AM32 °FIce fog.3 mph93%30.27 "Hg1 mi
7:00 AM32 °FIce fog.5 mph93%30.24 "Hg2 mi
6:30 AM32 °FIce fog.6 mph93%30.24 "Hg1 mi
6:00 AM32 °FIce fog.1 mph93%30.24 "Hg1 mi
5:30 AM32 °FIce fog.2 mph93%30.24 "Hg1 mi
5:00 AM34 °FFog.5 mph93%30.24 "Hg1 mi
4:30 AM34 °FFog.5 mph87%30.24 "Hg1 mi
4:00 AM34 °FFog.2 mph87%30.24 "Hg2 mi
3:00 AM36 °FFog.5 mph81%30.24 "Hg2 mi
2:30 AM36 °FFog.3 mph81%30.24 "Hg2 mi
2:00 AM34 °FFog.1 mph87%30.24 "Hg2 mi
1:30 AM34 °FFog.3 mph87%30.24 "Hg1 mi
1:00 AM34 °FFog.No wind87%30.24 "Hg1 mi
12:30 AM36 °FFog.No wind87%30.24 "Hg1 mi
12:00 AM37 °FFog.3 mph81%30.27 "Hg1 mi
11:30 PM
Dec 17
36 °FFog.3 mph81%30.27 "Hg1 mi
11:00 PM36 °FFog.1 mph81%30.27 "Hg1 mi
10:30 PM36 °FFog.No wind81%30.27 "Hg1 mi
10:00 PM36 °FFog.3 mph87%30.27 "Hg1 mi
9:30 PM37 °FFog.3 mph75%30.27 "Hg1 mi
9:00 PM36 °FFog.2 mph81%30.27 "Hg2 mi
Weather by CustomWeather, © 2014

See weather overviewHow to use our weather pages